Theta_e
305 305 304 303 304 303 303 304 302 302 304 306 306 307 308 311 312 313 313 313 313 313 319 328 328 323 322 320 319 319 319 319 317 316 316 315 315 316 316 317 318 318 320 320 321 321 320 321 322 322 323 324 323 324 325 323 323 325 322 321 330 336 330 318 314 320 326 326 328 329 327 324 323 325 326 326 328 326 323 329 329 321 319 323 322 318 336
305 305 305 304 305 304 303 304 303 302 303 305 306 307 309 309 309 312 314 315 314 314 320 328 330 328 325 323 322 321 320 320 319 318 317 316 316 315 315 318 318 319 321 320 320 320 319 320 322 323 326 329 328 325 323 323 324 324 323 326 327 325 325 321 315 315 318 320 322 323 326 325 325 330 329 324 329 330 332 337 330 320 322 325 321 321 338
305 305 305 305 305 305 304 303 303 302 303 305 306 307 308 310 312 313 314 315 315 316 318 320 324 327 323 321 323 322 322 322 320 320 319 318 318 317 317 318 318 320 322 321 321 321 319 319 323 327 330 334 337 329 323 324 323 324 333 334 324 325 332 324 314 314 315 316 318 321 324 327 329 333 328 325 330 326 326 328 319 316 325 326 324 328 340
305 305 305 304 305 305 304 303 303 302 302 304 306 308 308 312 320 320 315 314 315 317 316 313 316 321 320 323 326 322 322 323 321 323 322 320 319 318 319 319 319 321 322 322 324 323 323 325 328 333 334 336 342 337 329 327 327 339 353 340 329 339 340 326 319 318 316 318 327 335 334 325 320 323 324 325 327 326 331 327 318 323 328 326 334 339 331
305 305 305 304 305 305 304 303 303 302 301 304 306 308 309 313 321 320 315 317 317 316 315 312 313 317 318 324 326 322 323 324 323 325 324 322 322 320 320 320 318 322 324 325 326 327 330 332 330 334 339 341 341 336 335 336 342 364 369 341 334 340 329 324 327 324 320 325 334 338 334 322 319 322 323 324 325 327 329 323 323 334 326 320 344 353 328
304 304 304 304 305 305 304 303 303 302 301 304 307 310 312 317 320 315 313 317 319 316 315 313 313 315 318 322 324 321 323 323 322 323 321 321 322 320 322 323 321 323 324 324 332 336 335 334 337 342 344 342 339 338 339 339 342 357 353 336 336 333 322 324 326 323 324 327 327 329 329 326 324 324 323 323 325 325 322 323 334 340 323 320 347 355 333
304 304 304 304 304 305 305 304 304 303 301 304 308 310 312 315 315 312 312 316 316 315 314 314 315 317 319 325 327 323 323 323 319 319 319 321 324 324 328 332 330 328 324 326 340 345 334 332 346 353 342 336 338 339 338 335 336 338 335 337 338 326 326 333 325 319 324 324 324 327 325 324 324 324 325 324 325 326 322 327 338 337 329 335 351 350 341
304 304 304 305 304 304 305 305 304 303 302 304 307 308 309 310 310 311 312 313 314 314 314 315 317 317 320 328 329 323 322 322 318 317 317 319 326 330 334 338 335 330 329 332 342 348 341 338 345 345 338 336 340 341 340 337 335 333 332 338 335 324 333 346 330 319 320 322 326 326 323 325 322 321 327 325 323 325 322 329 337 331 331 343 346 342 342
304 304 304 304 304 305 305 305 305 303 303 304 305 305 306 306 307 309 310 313 315 315 315 314 316 319 322 326 325 320 320 321 317 317 319 320 327 333 334 336 335 334 335 334 334 337 339 338 336 332 332 335 336 338 340 336 334 336 337 338 335 331 338 344 329 317 317 321 324 324 325 325 319 319 324 323 323 326 327 336 341 333 336 346 340 334 336
304 304 304 304 304 305 305 305 305 304 303 304 304 304 305 305 306 308 310 313 315 314 314 313 317 323 322 319 317 316 317 318 316 319 326 326 328 331 331 332 335 340 341 335 329 328 329 330 330 328 328 329 330 331 333 332 332 337 340 339 342 341 336 335 327 317 317 323 324 325 323 318 319 329 335 331 333 335 335 342 345 344 350 350 338 335 341
304 303 304 304 304 305 305 305 306 304 304 304 304 304 304 305 306 307 309 313 313 312 314 315 316 318 316 312 313 313 314 316 315 318 323 325 326 328 329 329 335 347 346 333 324 322 323 325 326 326 325 327 331 331 330 331 332 336 337 337 344 346 338 336 331 318 318 327 327 323 318 316 327 348 348 338 338 337 336 339 341 345 353 350 343 345 351
304 303 304 304 304 304 305 305 306 305 304 304 304 304 304 305 306 307 310 313 313 312 313 314 312 312 312 311 311 312 314 315 315 315 317 320 322 325 327 327 331 341 338 325 319 321 324 328 332 333 332 331 334 334 332 333 336 339 335 332 339 344 339 341 341 327 324 331 326 316 316 324 344 354 343 337 338 338 341 342 341 344 348 349 349 349 350
304 304 304 304 304 304 304 304 306 306 305 304 304 304 304 305 306 307 310 312 313 312 313 312 311 311 311 311 311 312 314 314 314 315 317 321 323 324 326 325 325 327 324 319 320 323 329 343 349 345 343 345 344 338 335 334 338 340 336 332 337 341 340 347 347 332 326 325 319 316 322 337 351 345 337 340 340 338 340 337 337 342 345 347 348 345 346
304 304 304 304 304 303 303 304 305 305 305 305 304 304 304 304 305 306 308 312 313 312 312 313 312 311 311 312 312 313 313 312 312 315 319 323 325 325 326 323 321 320 319 320 327 332 337 348 351 343 342 345 337 335 340 342 338 338 336 335 341 345 348 350 338 329 333 330 322 324 329 333 341 342 338 339 336 336 339 334 334 343 345 345 345 341 342
304 304 304 304 304 304 303 304 304 305 305 305 304 304 303 304 305 306 308 311 312 312 312 313 313 313 312 312 312 312 312 312 312 313 317 321 323 324 324 321 319 319 321 324 333 341 341 337 335 334 336 336 329 331 342 342 335 336 336 336 340 342 347 348 333 330 341 335 322 327 328 325 336 347 345 339 332 335 342 338 338 346 348 347 346 342 341
304 304 304 305 305 305 304 304 304 304 305 305 304 304 303 303 305 306 307 309 312 313 312 312 312 312 312 311 312 312 313 313 312 314 320 323 321 320 319 318 317 320 328 336 339 342 343 337 332 333 337 341 335 331 334 335 336 341 344 342 340 338 347 357 346 338 343 336 326 330 331 330 340 350 346 339 334 338 342 334 333 345 350 347 345 340 338
304 304 304 304 304 305 305 305 305 305 305 305 304 304 303 302 304 306 307 308 311 312 311 310 310 311 312 313 313 312 313 313 312 317 323 323 321 320 318 316 319 322 332 345 345 338 337 338 333 332 338 344 337 328 332 337 332 337 353 357 349 348 358 362 347 339 344 344 334 330 333 340 348 347 340 336 337 344 341 327 328 346 352 346 345 346 345
304 305 305 304 304 304 305 305 306 305 305 304 304 303 302 302 304 306 306 308 311 312 311 310 310 311 312 313 312 311 312 312 313 316 320 323 326 324 315 314 322 326 332 343 345 338 337 338 331 330 337 343 336 332 340 340 330 332 353 360 353 353 358 354 346 341 342 341 333 328 335 346 347 341 336 336 339 346 342 331 336 349 348 342 343 345 345
304 304 304 304 304 304 305 305 305 305 305 304 304 304 302 302 304 305 306 308 310 311 310 310 310 310 310 310 311 311 310 311 312 313 316 321 325 321 314 317 326 328 331 340 343 338 339 343 338 333 336 339 339 338 340 341 339 340 347 348 346 349 347 345 347 346 342 343 340 333 337 346 339 334 337 339 339 341 339 340 346 348 343 340 338 339 341
304 304 304 304 304 304 305 305 305 305 305 305 304 304 303 302 304 306 307 308 309 309 309 309 309 310 309 309 310 311 311 311 312 313 314 316 317 316 321 328 331 331 335 342 344 338 338 343 342 336 335 339 343 341 338 340 344 343 343 348 351 349 342 339 341 340 341 348 344 332 335 343 337 338 349 349 343 343 345 347 347 344 344 342 339 340 341
304 304 304 304 304 304 305 305 305 305 305 305 304 304 303 302 303 304 305 306 308 309 309 308 309 309 309 309 309 310 310 310 310 311 312 314 314 314 320 327 331 334 336 338 340 338 333 335 337 335 336 342 343 340 339 342 339 337 346 354 351 349 348 344 342 341 343 347 344 338 343 346 337 340 351 346 340 345 349 346 343 342 344 344 342 344 343
303 304 304 304 304 304 305 305 305 305 305 305 305 304 303 303 302 303 304 305 307 308 308 308 309 308 308 309 308 308 308 308 308 308 309 312 314 314 316 322 328 332 333 334 340 340 332 331 335 335 338 341 339 338 343 345 340 339 345 346 341 346 353 350 344 344 344 344 346 348 352 348 337 335 339 336 336 340 339 338 340 343 344 345 345 346 344
304 304 304 304 304 304 305 305 305 305 305 305 305 304 304 303 302 303 304 306 307 308 308 308 308 309 309 310 309 309 309 309 308 308 308 311 314 315 319 323 324 326 329 332 337 339 333 331 334 336 339 340 337 339 346 347 346 345 344 341 338 341 348 351 349 346 343 341 344 346 343 340 334 330 330 331 332 333 332 333 336 339 340 343 345 347 347
304 304 304 304 304 304 305 305 304 304 305 305 305 304 304 303 303 303 304 306 307 308 309 308 309 310 311 311 309 309 311 311 311 311 310 310 312 314 319 322 320 322 325 325 328 331 331 332 332 333 337 340 337 337 342 345 347 345 340 343 344 340 343 351 350 344 343 344 347 344 337 335 334 330 328 329 328 328 328 330 331 332 334 338 341 345 347
304 304 304 304 304 304 305 305 304 304 305 305 305 305 304 303 303 303 304 305 306 308 310 309 309 309 309 309 308 309 310 310 312 312 312 311 310 311 314 316 314 317 321 322 323 325 327 333 335 334 336 339 338 337 338 340 342 341 339 344 347 341 342 346 346 345 346 346 345 341 335 336 338 333 328 327 327 327 327 328 328 328 329 331 332 333 335
304 304 304 304 304 304 304 305 304 304 305 305 304 304 304 303 302 302 303 304 306 308 309 309 309 308 308 308 308 308 309 310 311 312 313 313 311 309 311 312 312 315 320 323 324 324 326 331 334 335 336 337 335 335 338 340 340 341 343 343 340 340 345 345 342 344 344 340 339 340 337 337 337 335 333 331 328 327 328 327 327 328 330 332 332 330 328
304 304 304 304 304 304 304 304 304 304 305 304 304 304 303 302 301 301 302 304 306 308 309 310 310 308 308 308 308 308 309 311 312 313 313 313 312 309 309 311 314 317 321 321 321 325 327 328 330 333 336 335 334 334 337 339 341 344 349 344 334 336 345 343 338 341 342 339 339 340 338 337 334 331 332 332 329 328 329 329 329 330 333 336 336 336 333
303 304 304 304 304 304 304 304 304 304 304 304 304 303 302 301 301 301 301 304 306 308 309 310 309 308 309 309 308 308 310 310 311 312 312 311 311 310 310 311 313 316 317 316 317 322 326 325 327 330 330 332 338 338 335 337 340 343 348 346 335 333 340 340 337 341 342 340 343 342 338 336 334 330 330 330 328 327 328 329 329 330 331 332 331 333 334
303 304 304 304 304 304 304 304 304 304 304 304 303 302 303 304 305 304 305 305 306 307 308 309 309 310 311 310 308 307 308 309 311 312 310 308 309 310 310 311 313 315 317 316 316 321 325 325 327 327 323 328 339 340 335 338 341 338 339 340 333 332 337 338 336 340 340 338 340 338 332 328 327 328 329 328 327 327 327 326 326 325 325 326 326 325 326
304 304 304 304 304 304 304 304 304 304 304 303 302 303 307 309 307 307 307 306 305 306 308 309 309 309 309 309 310 309 309 310 311 309 308 307 309 311 310 311 315 318 318 316 316 320 324 325 325 326 325 326 332 333 331 335 337 334 334 334 327 327 333 333 332 335 337 333 330 327 326 326 325 324 325 326 326 327 328 328 328 326 323 323 324 323 324
303 303 303 304 304 304 304 304 304 304 304 303 303 305 309 310 308 307 307 306 304 305 307 308 309 309 310 311 312 311 312 313 312 310 308 308 309 310 309 310 315 319 319 319 318 319 323 324 324 326 327 325 327 329 330 332 334 334 333 331 323 320 324 325 325 327 327 325 324 323 323 325 325 323 323 323 323 323 325 328 329 328 326 323 322 322 322
303 303 304 304 304 304 304 304 304 304 304 303 303 304 305 306 306 307 306 305 303 304 308 309 309 310 312 314 313 313 313 314 312 311 312 312 312 312 311 312 316 320 322 322 321 320 324 327 325 324 325 325 328 334 333 328 326 325 325 324 322 320 321 322 323 324 324 323 324 324 323 323 324 323 322 321 320 320 322 323 323 323 323 321 320 320 321
304 304 304 304 304 303 303 303 303 303 303 303 302 301 301 302 304 304 304 303 302 304 308 309 309 311 313 314 315 314 313 314 314 311 313 317 317 314 314 316 316 316 318 319 320 322 325 326 322 322 326 328 329 334 331 323 319 319 320 321 322 322 322 322 321 322 323 323 323 323 323 322 322 321 320 319 320 319 319 319 319 319 320 320 321 322 322
304 304 303 303 303 303 303 303 303 303 303 302 302 301 301 303 304 305 305 304 304 305 307 307 310 312 312 312 318 320 314 314 316 313 314 320 319 314 316 318 315 313 314 317 319 322 324 324 321 322 326 327 328 330 328 324 321 321 322 323 323 321 320 321 321 320 321 321 322 322 322 321 320 321 321 321 320 319 318 318 319 321 322 322 322 322 323
303 303 303 302 302 302 302 303 303 303 303 303 302 303 304 306 306 306 306 305 305 308 309 308 309 312 312 315 324 325 314 312 316 316 316 320 318 316 320 319 313 311 313 315 316 318 319 324 327 326 324 326 327 327 326 324 322 321 322 323 324 323 321 322 321 321 320 320 320 321 321 320 322 323 323 322 322 321 321 321 321 322 324 324 323 323 324
303 303 302 302 302 302 303 303 303 304 304 304 304 305 307 307 307 306 306 305 305 308 310 310 310 312 314 318 323 321 313 314 319 318 316 318 318 319 321 320 317 315 314 315 319 320 318 323 329 327 325 327 327 325 324 323 322 321 321 321 321 322 323 323 322 321 320 320 320 321 322 322 325 326 325 324 324 324 323 323 323 323 324 325 325 325 325
303 302 302 302 303 304 304 304 304 305 305 305 306 307 307 307 307 307 306 306 306 306 308 310 311 313 314 315 317 316 315 318 320 317 315 318 321 320 319 321 325 322 316 317 323 324 323 325 328 326 325 326 324 323 322 322 321 321 321 321 320 320 322 322 321 320 321 321 322 323 324 324 325 327 327 326 326 325 325 324 324 323 322 323 325 325 325
302 302 302 302 304 306 307 306 305 305 305 305 306 308 308 308 308 308 308 308 309 308 308 308 310 311 311 312 315 315 313 316 321 321 317 317 320 320 320 323 326 325 321 319 321 324 327 328 327 325 324 324 323 322 322 321 321 321 320 320 320 320 320 321 321 321 323 324 323 323 323 324 324 325 326 326 326 325 324 325 324 323 322 323 324 325 325
302 303 303 304 305 306 306 306 305 305 305 305 306 309 310 309 310 311 311 310 310 310 310 309 310 310 310 311 314 314 312 314 321 325 322 318 319 320 321 320 320 322 324 322 320 324 329 328 326 326 325 323 322 323 322 321 321 321 320 320 320 320 320 321 321 321 323 323 322 322 323 323 323 324 325 325 325 324 324 325 324 322 322 324 326 326 327
303 303 304 305 306 305 304 305 304 305 307 308 308 308 309 309 311 314 313 311 312 312 311 311 312 311 309 310 313 315 315 315 317 321 323 320 319 322 323 321 322 326 325 321 321 327 329 327 326 327 325 323 323 323 322 321 322 321 320 321 321 320 320 321 320 320 321 322 322 323 324 323 323 324 325 324 324 323 323 324 324 321 320 323 325 326 326
303 304 304 304 305 304 304 305 306 307 309 310 309 309 310 311 312 313 312 313 315 314 311 312 314 314 311 310 311 314 317 317 316 320 324 323 321 323 322 322 326 329 324 320 324 330 329 326 326 325 323 323 324 323 322 322 323 322 322 322 322 322 322 322 321 320 320 322 324 324 322 322 323 324 323 323 324 323 323 324 324 321 319 320 322 323 323
303 304 304 304 304 305 305 307 308 308 309 309 309 310 310 310 311 311 311 313 315 313 309 312 316 317 315 313 313 314 316 316 317 322 325 320 319 323 325 325 327 325 320 320 328 331 328 326 326 324 322 322 323 322 322 323 323 323 323 324 324 323 322 322 322 320 319 321 324 324 320 319 320 319 319 320 322 321 321 322 323 320 319 320 321 321 322
304 303 303 304 306 306 307 309 309 309 309 310 308 308 310 312 313 312 312 313 315 315 312 313 316 316 314 315 318 319 317 315 318 324 324 317 315 321 326 327 323 318 318 324 328 328 326 325 324 323 323 322 321 322 322 322 323 324 324 323 321 320 318 319 321 320 318 318 320 320 318 317 317 318 318 318 319 320 320 320 320 320 320 321 321 321 322
304 303 303 305 307 308 309 310 309 308 309 310 309 308 310 313 313 313 312 313 317 317 315 314 315 315 315 317 320 320 318 318 321 324 323 321 321 322 323 323 321 319 323 327 325 323 324 324 323 322 323 322 320 321 322 322 323 324 323 322 320 319 318 320 321 321 321 320 319 318 318 317 317 318 318 318 319 320 319 318 319 321 322 322 322 322 322
305 304 305 307 308 308 308 309 309 308 309 310 310 310 310 310 312 313 313 313 315 316 316 318 320 321 319 319 318 317 319 323 325 321 319 321 324 321 317 319 322 324 326 327 325 323 324 324 322 323 323 322 321 322 323 323 323 323 322 322 322 322 323 324 323 324 325 324 320 319 320 319 317 317 319 319 320 320 319 319 320 322 322 322 322 321 322
305 303 304 307 308 307 307 309 310 310 310 311 312 311 310 312 314 315 313 314 314 314 315 319 323 323 321 321 320 321 323 326 325 321 320 322 322 317 316 321 324 325 326 327 325 324 323 323 322 322 322 322 323 324 324 323 324 324 323 324 325 324 324 325 325 324 324 321 318 318 319 318 318 318 319 320 320 320 321 321 322 322 322 322 322 321 321
305 303 303 306 308 307 308 309 309 309 310 310 311 310 310 312 314 314 314 314 315 315 316 321 326 324 320 319 320 321 323 325 323 321 322 323 320 317 320 324 325 324 326 326 324 323 323 323 323 323 323 324 325 325 324 324 325 325 325 325 325 325 325 326 326 325 322 320 320 320 319 318 319 320 319 319 320 321 321 322 322 321 322 323 322 321 321
307 305 305 307 308 307 307 309 310 310 310 310 310 312 314 314 315 317 316 315 315 316 319 324 327 324 320 320 321 321 322 322 321 319 321 323 321 318 320 323 323 323 325 325 324 323 323 323 323 323 324 325 325 325 325 325 324 325 326 326 326 326 326 326 326 323 321 321 321 321 319 319 320 320 319 319 320 321 322 322 321 321 323 323 322 321 321
306 305 305 307 308 308 308 308 310 311 311 310 310 313 315 314 316 318 317 315 316 319 321 323 324 322 318 318 321 322 320 318 316 318 321 323 320 317 320 324 325 323 323 325 325 324 324 324 325 325 325 326 326 325 325 324 324 324 326 325 324 323 323 324 323 321 320 320 320 320 320 321 321 320 319 320 320 321 322 321 321 321 323 323 322 321 321
304 305 306 307 308 308 309 310 311 313 313 311 311 313 313 313 315 316 314 314 319 325 324 322 323 322 319 317 318 317 316 317 320 322 323 321 320 320 324 326 324 323 323 324 324 324 324 325 326 325 325 325 325 325 324 324 324 324 323 321 319 318 319 320 320 319 319 320 320 321 322 322 321 320 320 321 321 321 321 321 321 322 322 322 322 322 322
304 306 308 308 307 308 310 310 312 313 313 312 312 313 313 313 314 314 313 315 320 324 321 317 318 320 320 318 316 313 313 318 322 322 321 320 321 324 325 324 322 322 323 323 323 325 326 326 325 325 325 325 325 325 324 324 324 322 319 317 317 318 319 319 319 319 319 320 320 321 322 322 322 322 322 321 320 320 320 320 321 322 323 323 323 323 323
306 308 310 309 309 311 311 312 313 315 314 313 313 313 313 314 314 313 313 315 318 318 317 318 321 321 318 314 313 315 317 319 321 321 321 320 320 322 323 322 321 322 323 323 324 326 327 326 325 325 324 324 324 324 324 324 324 322 318 317 318 319 318 318 318 319 319 319 320 320 321 322 322 322 321 320 320 322 323 321 321 322 323 323 323 323 323
Wind_Speed
20 21 23 25 26 28 31 34 36 36 36 34 29 18 5 1 5 9 8 7 6 2 1 4 2 2 4 4 4 3 2 3 2 3 3 3 4 4 5 6 7 7 7 6 6 4 5 6 6 5 7 9 12 14 14 16 13 9 8 9 7 4 4 5 7 7 6 8 8 6 4 5 4 6 6 6 6 6 7 5 5 4 3 2 3 3 6
20 20 21 24 25 27 29 32 34 33 32 32 25 11 2 3 6 8 8 6 3 4 2 3 3 3 4 4 4 4 4 4 5 6 5 5 4 4 5 6 7 6 4 5 7 4 3 5 5 6 7 8 12 16 18 18 13 9 9 8 7 5 3 5 5 6 6 6 6 6 3 3 4 4 5 7 8 8 5 3 4 3 4 6 5 4 6
21 20 20 23 24 25 27 30 33 32 30 30 20 6 3 5 3 4 7 6 1 3 1 0 2 3 2 3 4 4 3 5 8 9 8 7 6 6 5 6 8 6 3 5 9 6 4 4 4 5 7 7 7 9 13 16 12 10 12 12 11 7 5 6 7 8 8 7 7 6 3 2 3 3 6 9 10 11 6 3 5 4 4 5 6 5 6
21 20 20 21 22 23 26 28 32 32 30 29 19 5 3 3 2 3 5 4 2 0 1 3 2 2 3 3 3 3 3 3 6 7 7 9 9 7 7 7 8 6 5 6 7 6 5 4 4 5 6 6 5 6 6 9 9 7 5 8 7 3 4 8 10 11 10 9 9 7 4 4 4 6 8 10 11 12 8 5 5 6 4 4 6 7 5
21 20 20 21 21 22 24 27 30 31 31 28 15 4 2 1 2 2 3 3 3 2 2 4 3 2 3 2 3 4 4 4 4 4 5 6 7 6 6 8 8 7 7 5 4 5 4 3 4 6 6 5 6 9 8 3 6 4 6 8 5 3 3 9 13 15 15 13 13 9 4 6 8 9 10 11 10 11 10 7 7 7 7 5 9 6 10
20 20 20 20 20 21 22 25 28 30 31 25 10 2 1 1 2 2 3 3 2 2 3 5 6 5 4 2 3 4 4 4 3 3 5 7 6 5 4 6 8 10 11 7 4 4 2 4 5 5 5 5 6 8 7 3 3 1 4 8 6 4 5 7 10 15 17 16 16 14 8 6 8 8 11 13 12 12 13 11 9 10 9 8 8 9 12
19 19 20 19 19 20 20 22 26 29 29 20 6 1 2 2 2 3 3 2 3 4 7 8 7 7 5 3 4 3 3 4 4 3 4 7 5 2 1 5 7 6 10 9 4 4 4 2 4 3 3 5 4 4 5 4 4 6 2 3 4 5 6 7 9 12 14 15 17 16 12 10 9 9 11 12 13 16 17 12 10 12 10 8 10 13 13
19 19 19 18 18 18 18 20 23 26 27 18 6 3 4 2 2 3 3 3 5 5 5 5 5 6 4 3 3 3 2 3 6 6 4 6 7 4 2 6 9 9 5 7 5 5 7 5 4 4 5 5 1 1 3 4 6 7 3 2 0 3 6 6 9 7 10 12 15 15 13 13 13 13 13 12 12 13 12 7 6 7 4 3 9 12 11
19 18 18 17 17 16 16 17 20 22 23 16 5 3 6 5 6 5 4 4 5 3 3 3 3 4 3 2 2 4 3 4 9 9 6 6 5 3 4 8 6 7 5 3 5 3 4 6 8 9 8 7 4 3 4 4 6 7 3 2 1 3 4 2 6 6 8 10 13 15 12 10 12 13 14 12 9 8 6 4 6 8 5 5 7 8 10
19 17 16 16 15 15 14 15 17 18 18 13 4 4 8 8 7 5 3 3 4 3 3 3 2 3 2 3 5 5 7 9 9 7 5 3 4 5 7 7 3 2 6 4 1 4 5 7 9 9 9 10 8 6 8 8 5 4 3 3 0 4 2 2 5 6 7 8 10 11 7 5 8 10 9 9 8 7 5 3 3 6 8 8 6 7 9
18 17 17 15 14 14 13 12 13 14 14 12 6 6 8 8 5 4 2 3 3 3 3 2 1 2 5 8 8 8 10 12 8 4 4 5 6 8 7 5 2 1 6 6 6 9 11 11 10 7 8 10 9 9 11 10 8 7 4 2 1 3 4 4 4 5 6 5 6 8 6 6 7 6 4 7 8 9 9 6 3 2 1 4 4 4 5
18 17 17 16 15 13 13 12 11 11 11 11 9 7 8 8 6 4 2 3 4 3 3 3 3 4 8 10 10 9 10 12 10 8 8 8 8 8 7 5 3 2 5 8 10 9 8 7 5 4 6 7 7 9 11 10 7 7 4 1 3 2 1 3 1 3 4 3 6 7 6 8 5 5 5 2 9 14 12 8 6 6 5 2 0 1 6
17 17 16 16 15 14 13 12 11 10 10 11 11 9 9 9 6 3 2 4 5 3 3 5 7 8 10 10 9 10 11 11 12 11 9 8 7 6 5 3 2 5 9 12 11 7 4 1 1 2 5 5 4 6 9 8 6 3 1 0 2 1 1 1 1 2 3 4 5 7 7 4 3 5 6 4 5 12 12 8 7 6 6 4 2 1 3
18 17 16 15 15 14 14 13 11 10 10 11 12 11 11 10 6 3 3 3 5 4 3 6 7 6 7 8 8 9 10 10 9 7 6 5 5 5 5 4 5 8 9 8 6 3 1 1 2 1 2 5 4 4 6 7 4 1 3 2 1 4 2 1 2 1 3 5 4 2 1 3 4 2 2 3 3 1 8 7 4 6 7 6 3 2 5
19 17 16 15 15 14 14 13 13 12 10 10 12 13 14 12 7 5 3 3 5 5 3 4 3 3 6 8 7 7 7 6 6 6 5 5 5 5 5 6 8 10 7 3 0 1 1 1 1 1 1 1 3 4 4 4 3 0 2 5 5 5 2 2 2 1 2 5 4 3 3 1 3 6 7 3 4 6 3 9 2 6 7 6 2 4 8
18 17 16 15 14 14 14 13 13 13 11 11 12 14 15 12 7 7 6 3 4 5 3 3 3 6 7 8 7 6 4 4 5 6 4 5 5 6 7 7 9 9 5 2 1 2 2 2 2 3 2 3 3 3 3 1 3 5 3 8 10 7 3 3 3 2 2 5 5 4 2 2 5 7 10 7 5 6 2 8 2 5 5 5 1 4 7
18 17 17 16 15 14 14 13 13 12 11 10 10 13 16 13 8 7 6 3 4 5 6 6 6 5 4 4 4 3 3 3 4 3 3 5 7 8 9 9 8 7 7 5 2 3 3 2 1 1 2 3 3 2 3 1 2 5 5 7 9 7 5 4 4 2 1 3 3 2 2 3 6 7 9 8 4 2 6 5 4 5 6 3 3 6 5
18 17 17 17 16 15 13 13 12 11 11 10 10 13 16 12 7 7 5 3 4 6 6 6 4 3 3 3 4 3 3 4 3 2 4 4 3 6 8 7 6 6 5 4 3 4 2 1 1 2 3 3 2 4 2 1 0 2 2 4 5 4 4 2 3 2 2 3 3 1 1 3 5 7 9 8 3 7 7 4 6 3 7 3 4 7 6
18 17 17 17 15 14 13 11 11 11 10 10 9 11 14 12 8 7 6 3 3 5 5 4 5 5 6 5 5 4 3 4 3 2 4 3 3 6 8 5 3 5 4 4 3 3 2 2 1 1 1 3 2 1 2 2 2 2 3 4 2 0 2 3 2 2 2 3 3 1 2 3 5 9 10 5 3 5 3 5 2 5 7 4 5 8 7
18 17 16 16 14 13 12 11 11 11 10 10 9 11 14 13 7 5 5 4 4 6 9 10 10 11 9 6 6 5 4 3 3 2 3 3 4 6 5 2 3 4 3 3 3 2 2 2 3 2 1 2 2 2 1 3 2 3 4 4 2 4 2 3 2 0 1 3 4 2 1 5 7 9 8 4 4 5 5 1 5 6 6 5 6 7 7
17 16 15 14 13 12 12 12 12 11 10 9 8 9 13 12 7 7 10 8 4 4 6 8 9 11 11 11 12 11 8 8 7 5 3 4 5 4 1 2 2 2 1 2 1 1 2 3 3 2 2 2 1 2 2 2 2 3 3 3 3 4 3 2 2 0 2 3 1 1 3 6 8 5 2 3 3 3 5 5 5 5 6 6 6 6 6
16 15 14 13 13 12 12 11 11 11 10 9 8 8 11 14 13 13 14 11 8 8 12 17 20 22 26 29 30 27 23 23 22 14 6 4 4 3 3 3 3 2 1 1 2 1 1 2 2 2 2 2 2 3 3 2 3 2 0 2 2 3 5 5 3 1 1 4 3 3 3 6 6 5 7 6 7 7 8 9 7 5 6 5 5 6 6
15 15 14 13 13 12 11 11 11 11 10 9 8 9 11 15 17 15 13 10 8 9 16 22 23 23 24 26 26 25 24 27 30 25 16 7 4 4 4 3 3 2 1 1 3 2 1 2 1 1 2 2 2 3 3 1 2 1 1 2 1 2 3 4 4 2 1 3 2 3 4 4 5 8 9 10 10 7 7 10 9 6 5 6 6 6 6
14 14 14 13 12 11 10 11 11 11 10 9 9 10 12 15 15 12 9 6 3 4 8 9 8 9 12 14 18 19 18 20 24 27 24 17 6 3 2 2 1 2 2 1 2 3 2 2 1 1 2 2 1 3 4 4 2 2 1 0 1 2 1 3 5 5 3 2 2 4 5 5 5 7 9 10 10 8 8 10 8 6 7 8 7 7 7
13 14 13 12 12 11 10 11 11 11 10 9 9 10 12 13 12 8 5 4 2 3 5 4 6 12 15 17 19 20 18 15 14 16 21 22 15 8 5 2 2 2 2 3 1 3 1 0 2 2 2 2 1 1 4 5 3 3 2 0 0 1 2 4 4 3 4 4 3 0 6 6 6 5 6 7 9 9 9 9 8 7 8 8 9 9 8
12 12 11 11 11 10 11 11 10 9 9 9 9 10 12 15 15 10 7 6 4 4 4 4 8 13 15 17 20 22 18 14 10 9 16 23 25 19 10 4 3 3 0 0 1 3 2 1 3 2 1 1 0 2 4 3 2 3 2 2 2 1 1 4 4 4 6 6 5 4 6 7 7 6 5 5 5 7 8 7 8 9 8 9 10 10 7
12 11 10 10 10 10 11 10 9 9 10 9 10 12 14 18 18 14 11 7 3 2 4 4 6 12 15 17 24 24 17 12 11 9 13 21 24 19 10 4 3 2 2 2 1 2 3 1 1 3 2 2 2 3 3 2 2 3 3 2 2 3 0 3 6 7 5 4 5 6 7 5 1 2 3 3 2 6 8 7 7 7 7 8 10 9 8
11 10 10 9 9 9 10 9 8 9 9 9 11 15 18 20 20 18 15 11 6 3 4 4 6 11 13 14 19 21 16 14 14 12 14 18 20 16 9 4 3 1 1 1 1 2 2 2 2 2 3 3 1 1 3 3 1 2 4 3 2 2 2 3 5 6 4 5 7 6 6 6 3 1 2 2 2 7 10 8 7 7 6 8 10 10 9
9 9 9 8 8 8 8 8 8 8 8 10 12 15 14 11 10 9 8 7 7 5 4 5 5 6 7 10 16 18 16 14 12 11 13 13 12 10 6 4 4 3 2 2 2 1 2 2 2 2 3 3 2 1 2 3 2 2 5 5 2 2 3 5 1 4 4 4 6 7 7 7 6 4 5 4 4 8 10 9 9 8 8 9 10 8 8
8 8 8 8 8 7 7 7 7 7 8 10 10 8 5 2 3 9 11 4 2 3 2 3 4 3 5 8 11 11 12 12 10 8 10 8 7 6 6 5 4 2 2 2 1 2 2 2 2 3 3 2 4 3 2 1 1 3 7 9 3 5 4 4 2 4 6 4 4 7 9 8 6 7 8 7 6 8 8 8 8 9 9 9 9 7 7
7 8 8 7 7 7 6 7 7 7 8 8 5 1 1 1 4 13 12 2 11 6 1 3 4 4 4 5 5 7 10 9 6 5 5 5 5 5 6 5 3 2 3 2 1 1 2 2 2 2 3 2 3 3 3 4 3 0 6 10 5 5 8 4 4 6 8 8 8 11 10 7 6 8 9 8 7 8 8 7 7 9 10 10 9 8 8
7 7 7 7 7 6 7 7 6 7 9 8 6 7 8 7 5 10 10 13 14 5 1 2 3 3 3 4 5 7 8 6 3 2 2 4 4 3 4 4 2 2 3 3 1 1 2 2 2 3 3 1 2 3 2 3 4 2 3 4 2 6 8 8 7 7 6 6 9 12 11 9 8 8 6 6 7 9 9 7 6 9 11 11 10 11 11
6 6 6 7 7 7 7 7 7 9 11 12 14 16 16 14 11 10 12 14 9 2 2 2 3 3 3 3 5 5 4 3 1 1 2 3 2 2 2 2 2 2 2 2 1 2 1 1 1 3 3 1 2 4 3 4 3 2 1 2 5 8 10 10 10 10 8 7 8 10 8 6 6 6 6 7 9 9 9 8 8 9 11 11 11 10 9
6 6 6 7 7 7 8 8 9 10 11 10 12 13 11 9 8 7 7 7 3 1 2 1 1 3 3 3 4 3 1 2 2 2 2 3 2 3 1 0 1 1 2 2 1 1 1 1 2 1 3 4 3 4 4 5 6 3 4 5 5 7 11 11 10 9 9 8 8 8 7 6 6 7 8 9 8 8 8 9 9 10 10 9 8 7 7
5 5 6 7 7 8 10 10 9 9 7 7 8 7 4 3 4 5 3 5 2 1 2 2 1 3 3 3 3 4 3 2 2 4 3 2 1 2 2 1 1 1 1 1 0 1 1 1 1 2 4 3 4 4 4 6 7 6 7 7 7 6 10 10 8 6 6 7 8 7 6 8 9 8 8 7 6 7 7 8 8 8 8 7 7 7 6
4 5 6 7 8 8 9 7 6 5 4 5 7 7 5 5 7 6 5 6 4 2 2 1 1 2 2 2 3 4 5 3 1 2 1 1 1 1 2 3 0 2 1 1 1 2 3 2 2 3 4 4 5 5 5 5 7 8 9 8 7 6 7 6 5 6 8 10 10 9 9 10 9 7 6 6 6 7 8 8 7 8 8 6 7 7 6
4 6 7 7 6 5 5 3 4 4 5 11 12 10 7 7 7 5 4 5 5 5 2 1 2 3 2 2 3 3 3 2 1 1 1 1 2 1 2 2 1 2 1 3 3 2 3 3 4 6 6 5 5 4 6 6 7 7 7 7 7 7 7 4 3 6 10 11 11 9 8 8 7 6 6 7 7 7 8 7 6 6 6 6 5 5 4
5 6 6 4 2 1 1 2 3 7 13 14 10 6 3 2 1 1 2 2 3 3 2 1 2 3 1 2 4 3 2 2 1 1 1 1 1 0 0 1 2 1 1 2 3 3 2 3 4 6 5 4 5 5 6 6 6 5 6 6 6 7 7 6 7 9 10 9 8 7 6 6 7 6 5 6 6 6 6 6 5 5 6 5 4 4 4
4 4 4 2 1 1 3 6 10 13 12 7 2 1 1 1 1 1 2 1 2 1 1 2 3 3 3 4 5 4 2 1 3 2 1 0 0 0 0 0 1 1 2 2 1 2 3 3 3 3 4 4 5 6 6 6 6 6 7 7 7 7 7 8 9 10 8 6 4 4 5 6 6 6 5 5 6 6 5 5 6 6 5 5 5 5 4
3 3 2 1 2 5 10 14 13 9 5 1 1 0 0 1 1 1 1 1 1 2 2 2 2 3 5 5 4 4 3 1 1 1 0 0 0 0 1 0 1 2 3 3 2 2 3 3 2 3 3 3 5 5 5 6 6 7 7 7 8 8 8 8 8 7 6 6 5 6 6 6 6 6 6 5 5 5 5 5 5 5 5 6 7 6 5
4 3 2 4 8 13 16 14 7 2 1 1 1 0 0 1 2 2 1 1 2 2 2 2 1 3 5 5 4 4 4 2 1 1 1 1 1 1 2 0 0 3 4 2 1 2 3 3 3 3 2 3 5 5 6 6 7 8 8 9 9 9 9 9 9 8 7 7 5 5 6 6 5 4 4 3 3 3 3 3 4 5 6 6 7 8 10
6 6 7 10 13 13 10 6 2 1 1 1 1 1 1 1 2 1 1 1 2 1 2 2 2 3 4 4 4 4 3 1 0 1 2 1 1 1 1 1 1 4 3 1 0 2 3 2 3 3 2 3 4 5 6 6 6 7 8 8 8 7 7 7 7 7 8 6 4 4 5 5 5 5 6 5 4 4 4 3 4 5 7 8 9 11 12
7 7 7 8 7 4 2 2 1 0 1 1 1 1 2 1 1 1 1 2 2 1 1 2 2 3 3 1 1 2 2 0 1 1 2 1 1 1 2 2 2 3 2 1 2 3 3 3 3 2 1 2 3 4 4 4 5 5 5 5 4 4 4 3 4 6 8 8 7 7 7 6 7 9 10 9 7 6 6 7 7 8 9 10 12 13 14
5 4 3 2 2 1 1 2 1 1 1 1 0 1 2 3 3 2 2 2 2 2 1 2 2 2 2 2 1 1 1 1 1 2 2 2 2 2 2 1 1 1 2 3 3 3 2 2 2 1 1 2 2 2 2 3 3 3 4 4 3 2 4 6 6 7 8 9 10 10 9 9 9 10 12 11 9 7 7 9 10 10 11 11 12 13 14
3 3 2 2 2 1 1 1 1 0 0 1 1 1 0 2 2 3 2 2 2 3 3 3 3 2 1 2 1 1 1 2 2 2 1 1 2 2 1 1 0 2 3 3 2 2 2 1 0 1 2 2 2 3 3 3 3 3 3 3 5 6 7 8 7 6 6 6 8 8 8 8 8 8 9 11 11 10 8 8 8 10 10 10 10 11 12
1 1 1 1 2 1 0 1 2 1 0 1 2 2 2 2 3 4 3 1 2 4 4 4 2 1 1 1 1 1 1 1 2 1 1 2 2 1 1 2 3 3 3 3 3 2 0 1 2 2 2 2 3 3 3 3 3 3 4 5 6 7 6 6 6 6 5 6 7 7 6 7 7 7 8 10 11 11 9 8 9 9 9 8 8 10 12
1 0 1 1 1 1 1 1 1 2 2 3 3 3 2 2 3 4 3 2 3 5 4 3 2 1 1 1 2 2 2 2 2 1 1 2 2 1 2 3 3 2 2 3 2 0 1 2 2 2 3 2 3 3 4 5 5 5 5 5 5 6 6 6 6 6 6 7 6 5 6 7 8 9 8 9 10 11 11 11 10 10 8 7 8 9 10
0 0 1 1 0 1 2 2 3 3 3 2 3 2 1 0 2 4 4 3 3 4 3 2 2 2 2 2 2 1 2 2 2 1 1 2 2 1 3 3 2 2 2 2 1 2 3 3 3 3 3 3 3 4 4 5 5 6 6 5 5 6 6 5 5 6 7 7 5 5 6 8 9 9 9 8 9 11 12 11 9 8 7 8 8 9 9
0 0 1 1 0 1 2 3 3 3 3 2 1 1 2 0 3 5 5 4 4 4 2 1 3 2 2 2 2 2 2 2 2 1 2 3 3 2 2 2 2 2 2 1 2 2 3 3 3 3 4 4 4 4 4 4 5 5 5 4 5 5 4 4 5 6 7 7 5 5 6 7 8 9 9 7 8 10 11 9 7 7 7 7 7 7 7
1 1 0 1 2 2 3 3 4 5 6 5 3 2 1 1 3 4 4 4 3 3 3 3 2 2 1 2 3 3 2 1 2 2 3 3 2 1 2 3 3 1 1 1 2 2 3 3 2 3 4 4 3 4 4 4 4 5 4 4 5 6 5 5 6 7 7 7 6 5 6 7 7 8 8 6 7 9 9 8 7 8 8 7 7 7 7
2 1 1 1 1 1 2 2 2 3 4 5 4 3 3 3 4 5 5 4 3 4 4 3 2 2 3 3 3 2 1 1 3 3 3 2 2 2 3 3 1 1 1 1 1 2 3 2 2 2 4 4 4 4 4 4 4 5 5 6 7 8 8 7 7 7 7 7 6 5 5 6 7 8 7 6 6 7 7 8 11 12 11 10 9 9 8
1 1 2 3 2 2 2 2 2 3 4 3 3 3 3 3 4 5 5 4 5 4 3 2 1 3 3 2 1 1 1 2 3 3 2 2 2 2 2 1 1 2 1 1 1 3 3 3 3 3 4 4 4 4 4 4 5 5 5 7 8 8 8 8 9 8 8 8 7 6 6 7 8 8 8 7 6 5 5 7 11 13 13 12 10 9 8
Wind_Direction
325 328 331 332 336 338 340 342 345 351 357 356 349 341 328 226 301 272 248 263 259 190 255 281 255 233 246 257 260 241 248 262 246 254 265 237 223 226 225 233 236 234 240 250 248 245 250 250 246 255 261 249 237 227 213 208 197 170 183 201 191 164 143 181 230 260 270 266 269 267 218 181 211 245 213 173 176 170 161 177 180 183 204 139 132 237 264
322 325 328 331 334 337 338 341 344 349 357 355 345 338 322 277 283 282 289 290 209 182 235 260 243 258 272 275 275 259 247 251 251 248 235 216 224 240 232 229 232 232 244 262 266 271 257 251 261 276 284 272 250 234 215 207 199 183 185 182 177 200 182 162 201 244 267 274 276 286 286 162 189 237 212 193 187 165 142 123 136 192 213 162 160 229 250
321 323 326 328 330 335 337 339 342 346 351 353 347 325 292 306 257 252 301 321 217 196 223 301 271 300 319 294 280 274 252 236 239 245 243 232 231 246 251 242 239 239 254 278 281 283 273 279 299 294 285 286 282 257 225 210 205 206 199 177 167 189 188 165 187 213 223 228 228 237 242 193 200 210 204 203 184 167 162 129 141 210 226 155 159 212 251
319 320 324 326 328 334 336 337 340 343 347 350 345 301 270 327 290 274 307 335 19 322 16 35 7 338 349 321 267 246 256 259 249 250 251 238 227 230 241 246 250 245 236 262 280 278 266 268 292 303 295 290 303 308 270 219 209 224 203 166 152 157 181 182 192 208 212 209 220 222 168 156 204 209 203 208 194 177 158 127 164 188 166 173 210 196 193
316 318 322 325 328 332 335 337 340 341 345 348 341 274 223 311 283 326 337 325 348 2 24 39 22 313 305 301 268 260 272 286 281 264 259 251 241 236 228 228 230 217 208 219 243 250 260 276 289 296 290 281 296 312 319 259 205 191 156 157 141 107 201 198 195 209 215 210 217 218 165 171 206 204 200 207 200 177 161 170 189 160 137 211 250 198 173
313 316 318 322 327 331 335 338 339 341 345 349 345 233 226 280 271 2 4 305 313 345 334 343 329 294 278 268 261 263 275 298 305 282 295 293 265 238 229 241 238 212 194 189 201 220 256 320 306 286 277 300 321 323 328 314 287 346 144 168 155 143 218 212 198 213 220 218 223 223 209 212 218 209 205 204 191 180 186 194 180 153 163 213 223 189 186
312 313 314 318 325 329 335 339 339 342 346 352 5 247 303 306 303 352 5 311 283 283 293 304 305 296 289 267 252 261 286 302 308 304 314 309 286 249 242 276 288 257 203 190 196 197 180 264 286 270 288 310 327 327 310 286 323 4 25 202 170 167 213 202 190 217 226 222 230 231 225 231 238 232 221 208 191 188 195 197 178 173 190 201 179 182 197
309 309 310 316 322 326 333 338 338 342 349 359 28 40 358 347 306 332 350 309 281 272 280 293 300 301 287 252 264 305 296 304 325 322 290 280 298 331 300 277 305 309 248 184 170 177 160 167 230 259 300 305 262 250 275 279 326 345 327 282 166 185 224 198 171 209 237 224 226 232 227 229 235 238 233 218 199 193 193 182 168 182 203 161 152 178 211
303 305 308 313 318 322 328 335 337 344 354 3 19 19 360 328 291 303 319 296 282 275 288 303 300 292 275 255 324 332 317 326 329 309 262 245 276 308 291 282 301 316 289 178 136 146 161 179 221 244 260 264 244 233 253 272 313 320 299 309 27 171 241 225 149 185 235 223 220 229 228 229 241 246 240 225 198 186 187 163 165 177 164 112 121 173 221
298 301 304 307 312 315 321 329 334 343 356 5 2 336 347 337 309 307 302 280 290 307 312 311 278 264 296 347 342 319 304 314 319 305 292 294 301 306 297 287 298 309 286 280 358 319 283 242 241 243 242 248 248 249 256 253 255 270 282 298 200 142 180 232 157 182 234 229 206 206 199 211 245 249 228 203 176 158 145 133 170 169 146 138 161 206 221
299 299 301 303 304 308 314 319 327 338 352 0 352 323 336 339 320 315 309 274 287 323 326 307 263 302 339 338 328 314 305 308 311 306 303 303 313 321 311 303 327 244 250 271 302 299 283 264 257 252 241 246 252 259 266 259 231 215 223 270 278 132 161 214 184 178 225 228 166 154 161 196 233 259 221 172 152 133 118 95 36 2 96 171 194 203 179
302 300 300 301 299 302 305 306 317 329 336 343 340 317 319 327 310 292 288 273 285 323 321 284 263 298 313 312 308 305 301 299 300 294 279 276 294 309 308 319 344 269 272 301 313 309 295 275 267 278 266 254 253 260 266 264 239 210 185 222 308 339 157 218 193 160 194 169 126 149 198 222 243 318 331 131 121 113 100 74 43 15 349 326 346 201 182
300 299 297 297 296 297 298 298 308 319 320 326 327 312 312 323 310 269 262 272 276 286 294 287 282 284 290 293 296 296 291 289 293 288 273 267 277 287 296 314 293 280 295 305 310 321 329 335 357 302 293 306 313 280 268 266 259 243 114 145 261 334 33 167 89 103 159 137 142 181 214 261 330 11 1 3 92 106 95 57 10 5 10 3 343 295 191
295 296 295 294 292 292 294 293 296 302 306 312 315 311 312 312 293 263 281 274 265 273 292 292 290 283 285 297 303 300 299 302 303 296 279 273 277 271 272 282 282 285 288 286 300 333 67 42 19 293 297 337 332 288 280 282 276 307 7 347 110 107 91 126 91 114 153 132 137 174 95 6 347 357 342 316 304 172 117 92 342 333 23 23 356 67 94
289 293 294 292 290 289 290 289 288 290 295 302 307 309 310 306 284 252 259 274 282 286 252 238 272 331 326 316 311 305 311 320 323 314 291 276 277 269 268 286 296 295 285 250 296 23 125 121 79 150 159 320 259 250 274 291 290 283 57 24 39 78 104 167 152 162 109 106 112 98 74 85 249 272 279 283 302 287 125 102 12 316 17 22 342 129 118
285 287 290 290 289 287 286 286 286 286 289 295 302 305 308 311 291 255 252 262 277 273 239 231 317 338 318 301 297 295 303 317 322 324 310 296 304 299 296 302 303 308 331 40 85 53 83 130 168 180 181 182 199 249 272 282 310 309 10 35 22 12 27 104 110 75 63 103 127 134 124 214 242 273 289 301 312 299 38 97 166 285 353 15 61 124 120
282 281 285 288 288 287 286 284 283 284 283 286 297 303 304 309 301 271 262 249 249 263 274 286 302 306 285 289 305 294 285 310 325 332 311 306 311 311 318 324 318 331 13 33 19 35 69 125 151 165 226 206 163 202 280 353 7 311 338 28 19 353 351 39 51 21 51 94 101 122 141 239 258 269 285 294 307 19 75 104 221 283 341 344 121 108 101
282 279 283 287 287 288 288 284 283 283 281 282 292 298 298 304 304 275 257 257 268 262 264 279 289 266 244 271 300 288 287 323 339 319 286 290 297 307 317 326 323 335 15 38 28 26 27 263 164 159 241 266 149 150 223 296 336 276 333 50 42 3 340 12 58 22 17 77 94 104 196 247 267 283 288 294 345 65 91 177 231 333 0 338 114 110 113
280 280 281 282 283 285 285 284 283 282 280 282 289 293 296 305 306 277 255 250 263 258 270 306 309 276 262 268 275 277 295 308 299 289 294 293 294 302 303 304 309 324 359 40 33 15 359 320 306 147 251 299 328 138 161 166 209 218 114 93 74 354 313 329 45 43 11 72 93 36 298 262 295 311 306 311 68 96 163 206 207 32 12 2 83 95 99
278 278 278 279 280 280 282 284 283 280 278 278 281 290 297 302 305 288 275 270 271 276 281 279 263 254 260 264 255 265 299 298 266 272 280 273 306 329 332 328 320 320 352 43 25 353 349 321 311 345 347 300 308 310 176 154 209 219 144 132 173 160 144 322 318 113 46 56 59 54 219 266 314 331 329 358 87 155 190 128 56 40 13 12 60 79 82
278 276 275 278 277 276 279 281 279 277 275 274 276 288 295 297 305 316 308 295 276 271 282 282 266 254 256 259 255 257 263 257 252 260 268 272 301 338 335 263 287 306 344 60 88 339 345 313 299 330 327 305 316 292 265 134 170 230 168 138 148 142 146 213 228 146 72 85 93 197 217 281 319 0 58 35 54 122 121 87 65 49 37 30 38 48 60
274 274 273 275 274 272 273 275 276 276 272 271 273 275 283 290 301 317 317 295 261 254 271 283 286 280 274 272 268 261 255 253 251 248 241 272 291 273 255 280 281 250 259 97 122 87 12 313 297 320 310 312 339 297 275 142 152 247 174 123 157 175 176 164 135 101 150 148 195 251 269 302 332 58 94 82 70 74 86 93 87 62 54 55 52 41 33
271 269 269 271 271 271 272 272 275 274 268 269 269 264 276 290 300 316 320 293 261 261 268 274 282 283 276 274 273 269 263 258 254 244 225 216 272 272 238 249 272 273 319 102 132 135 152 196 232 311 284 278 330 319 304 197 176 207 147 147 134 147 162 133 116 157 147 88 32 349 1 357 29 75 89 87 81 78 80 87 86 79 76 79 73 55 28
268 266 267 269 269 270 271 273 275 273 269 269 267 267 279 288 296 316 325 293 266 291 279 270 272 267 265 281 298 296 281 266 259 248 228 206 208 291 261 210 260 328 324 253 168 126 145 186 152 20 302 293 17 343 307 288 311 36 103 167 37 76 101 92 116 145 132 81 325 348 16 4 23 73 93 95 92 94 88 83 87 90 85 82 79 71 54
268 268 269 268 268 271 272 271 272 274 275 273 270 273 281 283 288 310 318 284 277 302 299 295 268 265 281 302 305 297 289 284 278 257 229 210 207 230 250 255 283 281 243 238 164 92 82 119 93 65 321 313 82 324 273 263 299 4 31 303 269 183 128 94 108 124 105 128 194 28 37 12 355 28 76 92 93 97 97 100 108 102 87 79 71 62 57
268 269 268 267 271 276 276 272 274 277 278 278 277 277 280 283 285 284 272 267 272 263 269 286 281 287 310 318 302 296 302 305 293 256 230 222 221 225 233 258 289 294 289 169 117 111 109 57 82 98 296 298 217 248 255 255 307 331 294 243 271 286 135 123 123 99 84 106 156 140 76 39 1 1 24 41 66 85 89 93 99 97 93 88 76 63 51
266 265 266 268 271 274 273 273 276 276 277 280 282 281 282 284 283 273 255 246 246 262 264 261 282 304 315 306 297 301 308 304 295 277 242 229 224 224 226 231 253 310 26 37 12 78 102 102 131 151 184 245 249 251 269 289 326 309 283 285 2 18 2 154 132 129 139 156 164 151 121 100 32 326 16 18 51 82 78 68 67 79 89 90 86 79 62
265 263 266 267 270 275 278 277 278 281 284 287 289 289 286 280 274 269 260 244 225 248 296 278 283 304 307 297 299 304 302 294 292 272 238 227 223 220 219 212 211 244 54 84 25 50 119 169 200 175 186 212 229 315 318 327 358 310 293 306 28 45 275 234 139 133 163 159 142 141 127 122 145 159 29 5 41 78 78 71 68 73 77 81 84 81 71
265 265 265 265 268 275 280 283 286 291 293 297 302 302 296 282 262 248 236 227 224 243 293 296 280 288 296 299 304 304 299 298 291 252 223 221 218 212 210 209 201 191 146 115 103 122 207 215 216 210 200 175 131 43 322 339 5 330 304 304 346 64 327 294 169 109 89 98 122 128 112 105 113 104 79 53 56 77 81 76 73 72 67 71 75 75 79
265 266 266 270 273 273 276 283 289 291 293 305 315 312 303 337 132 156 152 133 325 286 263 287 287 288 291 294 297 294 292 299 291 245 214 207 212 212 212 214 206 164 102 86 127 184 238 255 242 253 247 181 149 159 174 117 23 325 310 310 322 99 80 327 317 99 95 88 98 102 101 104 107 92 73 51 48 71 76 68 70 75 73 75 78 76 76
265 264 265 271 275 276 279 282 284 288 292 304 326 319 209 48 132 159 166 313 336 336 249 251 277 296 294 275 260 267 275 277 266 230 206 204 222 222 203 199 200 147 135 149 176 196 228 235 238 281 287 214 159 155 151 131 114 331 301 305 317 92 97 71 50 85 106 112 95 80 74 71 72 68 54 36 38 61 69 61 58 67 70 71 72 71 65
266 266 267 271 274 275 278 278 281 286 284 280 272 261 266 275 232 199 231 293 315 324 218 268 287 298 295 276 263 264 262 250 225 209 215 216 216 208 191 185 186 178 164 143 119 243 221 197 212 272 275 220 130 102 86 85 99 132 250 284 2 72 79 79 72 67 77 96 92 81 62 44 52 68 61 40 41 51 59 59 57 64 66 60 55 56 55
270 269 268 273 276 275 277 281 282 281 280 279 275 271 268 270 272 264 269 283 290 253 192 267 302 280 269 292 292 268 236 213 200 185 219 230 203 170 192 180 145 154 176 159 187 242 228 167 233 269 280 322 81 88 60 20 24 81 60 36 69 78 73 70 68 62 52 50 72 91 96 85 81 85 71 53 44 42 45 48 48 50 50 45 41 38 37
269 270 270 274 276 275 278 282 282 282 284 280 276 275 270 270 287 293 263 243 240 248 235 219 290 277 281 320 315 282 167 129 152 173 224 254 189 148 167 17 70 128 202 190 199 271 302 247 232 281 340 355 27 67 49 355 342 19 48 27 34 74 75 64 55 56 58 58 65 86 109 116 96 71 55 49 44 40 41 44 44 45 42 35 31 27 20
275 281 280 282 284 283 284 282 278 280 282 268 270 288 300 282 308 321 259 212 176 42 266 224 219 276 300 327 308 303 343 4 192 188 211 248 192 151 143 78 39 238 207 176 187 298 304 262 129 34 351 356 38 45 12 342 346 19 46 30 13 48 72 70 60 56 62 70 73 71 74 77 70 57 50 50 44 41 47 47 45 48 45 28 15 15 16
295 296 293 295 295 291 290 280 252 236 246 275 293 315 326 303 308 311 264 231 215 207 249 283 244 237 274 300 282 306 342 343 259 199 195 207 218 172 114 103 148 241 191 87 40 3 345 343 74 47 7 30 55 22 338 346 7 23 40 36 23 45 72 82 90 83 69 63 62 57 56 60 59 49 44 41 31 33 41 37 32 38 37 19 6 7 6
308 305 303 306 304 293 288 255 206 220 290 311 314 312 296 282 290 287 239 223 220 213 209 327 271 244 254 274 268 297 340 322 293 8 8 198 199 195 103 110 196 229 83 64 73 70 17 3 70 72 53 54 59 15 354 14 23 22 32 34 31 47 56 52 74 85 71 56 48 43 45 51 49 40 37 30 20 23 30 24 18 24 19 1 354 354 346
312 308 307 315 328 320 268 217 253 301 312 314 315 311 290 249 220 221 214 200 205 201 171 171 252 256 266 269 268 280 300 296 331 55 77 221 214 296 68 128 178 185 86 86 122 116 64 19 56 75 65 46 38 22 12 19 25 25 31 33 32 41 44 39 49 64 67 57 39 30 37 44 39 33 35 30 20 19 18 8 1 9 7 354 346 345 347
320 319 320 324 293 245 269 291 309 316 316 310 287 248 280 105 131 230 240 191 180 199 188 200 224 220 209 241 270 274 252 286 357 22 31 257 316 201 235 219 204 114 85 89 92 79 67 46 43 60 54 26 12 7 5 13 24 28 28 32 34 34 36 41 48 58 71 77 56 35 39 41 33 23 22 21 16 11 11 10 8 5 359 351 349 356 6
340 338 329 279 261 287 300 310 318 322 325 357 86 79 41 128 179 208 202 202 228 218 194 191 210 214 206 216 259 276 249 221 1 20 105 165 269 155 114 209 204 94 81 68 25 40 79 82 46 40 45 18 352 350 359 12 21 22 20 25 30 30 33 38 40 48 64 67 52 38 35 33 31 26 17 12 14 11 4 0 357 352 351 352 351 347 340
358 350 319 299 301 304 309 317 327 340 74 48 19 332 204 233 244 224 179 222 253 229 188 178 219 247 223 205 215 254 267 264 214 154 107 32 331 56 70 327 286 79 82 89 59 58 72 76 64 57 45 6 346 349 1 10 14 13 11 13 18 22 26 28 26 27 34 37 33 27 23 20 23 22 10 8 25 16 341 327 337 342 342 340 333 325 320
328 316 308 306 304 303 308 324 354 55 49 36 21 292 255 238 250 262 219 225 235 214 180 180 207 239 235 205 194 223 256 296 2 94 75 16 318 63 74 323 10 73 89 157 113 67 66 74 79 69 35 4 357 359 5 7 5 1 357 357 360 1 5 15 19 19 21 26 22 9 7 7 3 357 353 353 355 344 328 320 325 329 330 331 331 327 325
322 311 311 312 309 306 324 336 330 73 66 51 14 329 321 300 277 277 260 258 279 285 183 195 238 273 280 272 236 248 264 344 60 76 63 9 327 37 57 26 30 69 82 59 45 54 59 73 80 65 10 5 15 13 3 355 348 339 330 320 308 303 321 2 25 18 15 18 13 0 357 357 351 347 351 355 352 344 335 329 325 327 335 341 340 336 336
346 332 338 343 320 324 357 324 303 88 58 1 99 57 353 332 326 327 321 313 318 317 258 225 244 273 286 295 314 318 323 4 50 56 38 4 347 23 56 42 339 21 58 62 60 50 49 72 83 45 337 350 4 353 335 323 312 295 284 283 290 323 0 17 23 17 11 10 6 360 358 356 351 349 351 351 346 338 326 323 328 339 347 346 342 341 342
18 355 7 11 335 337 37 8 331 12 331 277 196 148 260 280 281 291 300 302 301 305 294 262 233 216 247 288 315 1 336 345 31 56 44 14 14 20 39 82 52 36 55 72 79 63 48 50 3 314 316 313 310 312 311 300 280 270 286 337 5 16 18 15 13 10 3 358 357 356 353 349 346 345 341 337 337 338 334 331 338 346 346 342 340 338 339
63 39 66 49 347 328 28 8 352 7 351 268 241 217 221 238 254 265 278 304 308 300 292 280 261 140 60 337 340 14 4 20 52 72 102 95 74 12 356 62 60 50 58 71 75 73 79 244 254 265 275 282 297 312 319 320 327 348 11 14 7 4 8 10 7 0 351 345 348 351 349 343 339 335 330 329 334 341 346 346 347 346 340 334 332 332 338
86 178 113 74 0 326 347 4 329 291 282 288 283 260 231 229 254 269 275 279 284 286 288 292 313 18 50 37 15 349 343 33 59 32 31 80 82 335 3 51 53 42 58 70 73 138 232 249 262 271 285 307 335 344 345 349 356 3 10 7 356 354 358 359 357 351 343 341 343 347 345 341 338 336 332 328 329 337 343 345 345 346 345 340 337 342 349
47 351 84 96 58 314 343 343 315 299 304 318 319 322 345 346 295 298 290 266 272 298 324 8 40 21 0 16 41 7 338 18 41 0 358 70 78 21 30 48 40 23 56 92 162 218 234 245 253 270 297 335 1 359 350 348 348 349 352 350 343 342 343 340 337 336 336 336 336 335 337 340 340 338 334 327 324 332 341 344 345 354 2 359 354 356 359
177 22 98 119 188 274 288 297 309 327 345 359 25 67 72 18 287 290 290 281 285 302 321 65 96 76 344 347 37 35 353 2 33 13 12 40 53 52 61 69 55 39 48 120 209 228 242 249 261 292 314 334 355 355 343 335 333 334 332 324 317 316 315 310 310 318 328 331 327 322 332 342 343 338 336 330 323 328 337 342 348 358 5 5 2 3 359
41 62 119 1 5 339 316 325 348 356 355 355 358 16 43 298 281 289 303 309 317 343 8 24 50 60 7 5 37 33 353 350 46 45 34 37 44 59 77 75 72 72 245 233 211 219 242 262 291 313 314 322 338 336 327 324 323 318 312 307 306 306 306 304 304 311 322 328 327 326 339 349 347 338 333 327 323 330 341 352 357 358 359 359 0 360 354
9 24 278 290 326 311 296 314 326 318 325 337 331 316 326 348 337 322 319 328 3 34 27 7 11 37 32 31 37 14 332 11 46 46 40 31 18 38 70 81 112 223 234 249 232 230 245 257 261 279 303 322 331 322 313 313 309 305 308 318 322 322 323 323 321 318 321 325 329 333 341 346 345 339 332 332 342 354 1 2 2 2 1 359 357 356 352
19 349 299 288 275 262 274 302 289 275 288 301 291 288 327 354 332 315 330 10 39 37 12 354 51 57 46 40 35 1 15 44 44 32 32 35 22 40 82 116 227 230 177 163 254 272 274 264 256 266 289 306 311 313 317 314 307 306 316 325 328 327 326 326 325 324 323 322 323 327 334 343 351 350 344 347 2 12 357 347 355 1 0 357 355 354 350